[[{"header":{"parameterUnit":"m.s-1","parameterCategory":1,"la1":30.2991,"la2":30.254,"lo1":-89.0895,"lo2":-89.0444,"dy":0.0017,"dx":0.0017,"nx":28,"ny":28,"refTime":"2025-08-30T09:00:00:Z","depth":0,"parameterNumber":2,"parameterNumberName":"U-component_of_WINDS"},"data":[0,0,0,0,0,0,0,0,0,0,0,0,0,0,0,0,0,0,0,0,0,0,0,0,0,0,0,0,0,0,0,0,0,0,0,0,0,0,0,0,0,0,0,0,0,0,0,0,0,0,0,0,0,0,0,0,0,0,-1.5809,-1.5809,0,-1.5807,-1.5807,-1.5807,-1.576,-1.5759,-1.5758,-1.5756,-1.5754,-1.5755,-1.5756,0,0,0,0,0,0,0,0,0,0,0,0,0,-1.5771,-1.5772,-1.5809,-1.5809,-1.5809,-1.5807,-1.5807,-1.5807,-1.576,-1.5759,-1.5757,-1.5756,-1.5754,-1.5755,-1.5756,0,0,0,0,0,0,0,0,0,0,0,0,0,-1.578,-1.5773,-1.5809,-1.5786,-1.5783,-1.5807,-1.5807,-1.5807,-1.5761,-1.5759,-1.5757,-1.5755,-1.5753,-1.5755,-1.5757,-1.5803,0,0,-1.5761,-1.5762,0,0,0,0,0,0,0,0,-1.578,-1.5782,-1.5789,-1.5787,-1.5785,-1.5782,-1.5793,-1.5805,-1.5761,-1.5769,-1.5756,-1.5754,-1.5765,-1.5765,-1.5769,-1.5802,-1.5802,-1.5762,-1.5763,-1.5763,-1.5764,0,0,0,0,0,0,0,-1.5779,-1.5782,-1.5808,-1.5789,-1.5787,-1.5775,-1.5774,-1.5795,-1.5777,-1.5768,-1.5765,-1.5765,-1.5763,-1.5768,-1.5769,-1.5802,-1.5762,-1.5763,-1.5764,-1.5765,-1.587,-1.5872,0,0,0,0,0,0,-1.5782,-1.5782,-1.5808,-1.5808,-1.5778,-1.5777,-1.5776,-1.5785,-1.5777,-1.5774,-1.5767,-1.5763,-1.5766,-1.5767,-1.5768,-1.5819,-1.5763,-1.5765,-1.5766,-1.5868,-1.587,-1.5872,0,0,0,0,0,0,-1.5782,-1.5785,-1.5808,-1.5794,-1.5796,-1.5779,-1.579,-1.5786,-1.579,-1.5776,-1.5772,-1.5774,-1.5764,-1.5766,-1.5794,-1.5818,-1.5765,-1.5767,-1.5866,-1.5869,-1.5871,-1.5922,0,0,0,0,0,0,-1.5781,-1.5785,-1.5803,-1.5795,-1.5797,-1.5834,-1.5791,-1.5787,-1.5793,-1.5788,-1.5782,-1.5779,-1.5763,-1.5791,-1.5795,-1.5819,-1.5768,-1.5863,-1.5867,-1.587,-1.5918,-1.5926,-1.5933,0,0,0,0,0,-1.5779,-1.5818,-1.5804,-1.5808,-1.5819,-1.5836,-1.5837,-1.5818,-1.5795,-1.5812,-1.5802,-1.5779,-1.5815,-1.5795,-1.5799,-1.5824,-1.5862,-1.5866,-1.587,-1.5915,-1.5925,-1.5933,0,0,0,0,0,0,-1.583,-1.5817,-1.5801,-1.5838,-1.5838,-1.5828,-1.5849,-1.5829,-1.5836,-1.5832,-1.5807,-1.5806,-1.5837,-1.5833,-1.5811,-1.5866,-1.5834,-1.5839,-1.5867,-1.5876,-1.5884,-1.5883,-1.5769,0,0,0,0,0,-1.5846,-1.5861,-1.5848,-1.5882,-1.5883,-1.5866,-1.5873,-1.5858,-1.5857,-1.5857,-1.585,-1.585,-1.5861,-1.5869,-1.5878,-1.5918,-1.5914,-1.5937,-1.5944,-1.5951,-1.5955,-1.5972,-1.5981,-1.5886,-1.5886,-1.5886,0,0,-1.5878,-1.5872,-1.5884,-1.5892,-1.5891,-1.5906,-1.5867,-1.5885,-1.5896,-1.586,-1.5884,-1.5879,-1.5878,-1.5911,-1.5925,-1.5908,-1.598,-1.5956,-1.5961,-1.5962,-1.5977,-1.5986,-1.5994,-1.5889,-1.5888,-1.5888,0,0,-1.5944,-1.5942,-1.5969,-1.5967,-1.5965,-1.5953,-1.596,-1.5952,-1.5947,-1.5971,-1.5944,-1.5956,-1.5977,-1.5975,-1.5977,-1.6041,-1.6019,-1.6045,-1.6083,-1.6101,-1.6108,-1.6115,-1.6134,-1.6142,-1.6049,-1.6049,-1.605,0,-1.5984,-1.6006,-1.5985,-1.6004,-1.6008,-1.5976,-1.6001,-1.6001,-1.6003,-1.6005,-1.5987,-1.601,-1.6007,-1.6037,-1.6053,-1.6057,-1.6061,-1.6044,-1.6109,-1.6115,-1.6121,-1.6139,-1.6147,-1.6052,-1.6052,-1.6052,-1.6051,0,-1.6054,-1.6069,-1.6091,-1.6092,-1.6098,-1.6121,-1.6102,-1.6111,-1.6095,-1.6085,-1.6109,-1.6104,-1.611,-1.6117,-1.6102,-1.6145,-1.6134,-1.6113,-1.608,-1.6133,-1.615,-1.6157,-1.6057,-1.6056,-1.6055,-1.6054,0,0,-1.6151,-1.6139,-1.6147,-1.6145,-1.614,-1.6151,-1.6172,-1.6177,-1.6184,-1.6186,-1.6201,-1.6218,-1.6197,-1.62,-1.6185,-1.6201,-1.6247,-1.6177,-1.6176,-1.6188,-1.629,-1.6304,-1.6313,-1.6233,-1.6235,-1.6236,-1.6289,0,-1.6212,-1.6246,-1.6226,-1.6262,-1.6275,-1.6244,-1.6261,-1.6259,-1.625,-1.6259,-1.6249,-1.626,-1.6234,-1.6235,-1.6249,-1.6239,-1.6267,-1.6235,-1.6245,-1.6246,-1.6244,-1.6322,-1.6337,-1.6388,-1.6296,-1.6297,-1.6298,0,-1.6288,-1.6291,-1.6328,-1.6317,-1.6322,-1.6338,-1.634,-1.635,-1.6346,-1.6338,-1.634,-1.6321,-1.6339,-1.6308,-1.6331,-1.6309,-1.6313,-1.6308,-1.6309,-1.6308,-1.6273,-1.632,-1.6404,-1.6411,-1.6309,-1.6308,-1.6307,0,-1.6351,-1.6365,-1.6388,-1.6389,-1.6378,-1.6389,-1.6385,-1.638,-1.6384,-1.6386,-1.6388,-1.6393,-1.6395,-1.6399,-1.638,-1.636,-1.6405,-1.6373,-1.6397,-1.6397,-1.6406,-1.6405,-1.6489,-1.6413,-1.6412,-1.6412,-1.6412,0,-1.642,-1.6443,-1.6416,-1.643,-1.6454,-1.6432,-1.6457,-1.6449,-1.6444,-1.6455,-1.643,-1.6441,-1.6417,-1.6425,-1.6411,-1.6431,-1.6433,-1.6426,-1.6421,-1.6426,-1.6427,-1.6426,-1.6421,-1.6414,-1.6414,-1.6413,-1.6413,0,-1.6494,-1.6477,-1.65,-1.6487,-1.6484,-1.6503,-1.6491,-1.6503,-1.6492,-1.6506,-1.6508,-1.649,-1.6498,-1.6481,-1.6487,-1.6477,-1.6504,-1.6496,-1.6505,-1.6501,-1.6525,-1.6522,-1.661,-1.6619,-1.6539,-1.654,-1.6541,0,-1.6537,-1.6554,-1.6543,-1.6548,-1.6545,-1.6554,-1.6557,-1.6536,-1.654,-1.6536,-1.6548,-1.6554,-1.6557,-1.6571,-1.6558,-1.6562,-1.6552,-1.6582,-1.6552,-1.6556,-1.6548,-1.6547,-1.6547,-1.6588,-1.6589,-1.6589,-1.659,0,-1.6615,-1.6606,-1.6611,-1.6614,-1.6618,-1.6619,-1.6618,-1.6624,-1.6601,-1.6607,-1.6614,-1.6617,-1.6622,-1.6627,-1.6628,-1.6623,-1.6602,-1.66,-1.6605,-1.6609,-1.6613,-1.6608,-1.6519,-1.6598,-1.6597,-1.6596,-1.6596,-1.6596,-1.6673,-1.6686,-1.6679,-1.6685,-1.6682,-1.6681,-1.669,-1.668,-1.6686,-1.6687,-1.6675,-1.6684,-1.6678,-1.6677,-1.6674,-1.668,-1.6666,-1.6675,-1.6676,-1.6678,-1.668,-1.6614,-1.6681,-1.668,-1.668,-1.668,-1.668,0,-1.6747,-1.6741,-1.6747,-1.6746,-1.675,-1.6731,-1.6728,-1.6733,-1.6742,-1.6738,-1.6741,-1.6748,-1.6753,-1.674,-1.6742,-1.675,-1.674,-1.6751,-1.6749,-1.6747,-1.6694,-1.6688,-1.6758,-1.6758,-1.6758,-1.6758,-1.6758,-1.6758,-1.6786,-1.6805,-1.6794,-1.681,-1.6804,-1.6812,-1.6812,-1.681,-1.6807,-1.6816,-1.6819,-1.6811,-1.6803,-1.6804,-1.6806,-1.6802,-1.6803,-1.6817,-1.6809,-1.6759,-1.6752,-1.6744,-1.6738,-1.6818,-1.6818,-1.6862,-1.6862,-1.6862]},{"header":{"parameterUnit":"m.s-1","parameterCategory":1,"la1":30.2991,"la2":30.254,"lo1":-89.0895,"lo2":-89.0444,"dy":0.0017,"dx":0.0017,"nx":28,"ny":28,"refTime":"2025-08-30T09:00:00:Z","depth":0,"parameterNumber":3,"parameterNumberName":"V-component_of_WINDS"},"data":[0,0,0,0,0,0,0,0,0,0,0,0,0,0,0,0,0,0,0,0,0,0,0,0,0,0,0,0,0,0,0,0,0,0,0,0,0,0,0,0,0,0,0,0,0,0,0,0,0,0,0,0,0,0,0,0,0,0,-2.3046,-2.3047,0,-2.316,-2.3162,-2.3163,-2.3198,-2.3197,-2.3197,-2.3196,-2.3308,-2.3311,-2.3315,0,0,0,0,0,0,0,0,0,0,0,0,0,-2.2852,-2.2855,-2.3046,-2.3047,-2.3049,-2.316,-2.3162,-2.3163,-2.3198,-2.3197,-2.3197,-2.3196,-2.3307,-2.3311,-2.3315,0,0,0,0,0,0,0,0,0,0,0,0,0,-2.2948,-2.2856,-2.3045,-2.3079,-2.3084,-2.316,-2.3162,-2.3164,-2.3198,-2.3197,-2.3196,-2.3196,-2.3305,-2.331,-2.3316,-2.3364,0,0,-2.3331,-2.3334,0,0,0,0,0,0,0,0,-2.2942,-2.2955,-2.3073,-2.3077,-2.3082,-2.3164,-2.3134,-2.3231,-2.3198,-2.3154,-2.3196,-2.3195,-2.326,-2.3269,-2.3292,-2.3369,-2.3374,-2.3332,-2.3335,-2.3337,-2.3339,0,0,0,0,0,0,0,-2.2936,-2.295,-2.3091,-2.3075,-2.308,-2.3087,-2.31,-2.3153,-2.321,-2.3158,-2.3161,-2.3174,-2.3263,-2.3287,-2.3295,-2.3376,-2.3332,-2.3336,-2.334,-2.3342,-2.3498,-2.3499,0,0,0,0,0,0,-2.2924,-2.2944,-2.3087,-2.3094,-2.3009,-2.3091,-2.3106,-2.3138,-2.321,-2.322,-2.3175,-2.3176,-2.3279,-2.3289,-2.3299,-2.336,-2.3337,-2.3342,-2.3345,-2.3497,-2.3498,-2.3499,0,0,0,0,0,0,-2.292,-2.2936,-2.3083,-2.302,-2.3039,-2.3096,-2.3132,-2.3141,-2.3166,-2.3223,-2.3233,-2.319,-2.3278,-2.3292,-2.3348,-2.3365,-2.3345,-2.3349,-2.3496,-2.3497,-2.3499,-2.3483,0,0,0,0,0,0,-2.2914,-2.2935,-2.2955,-2.3021,-2.3043,-2.3131,-2.3133,-2.3144,-2.3175,-2.3177,-2.3239,-2.3249,-2.3279,-2.334,-2.3353,-2.3371,-2.3353,-2.3494,-2.3496,-2.3498,-2.3482,-2.3484,-2.3485,0,0,0,0,0,-2.2907,-2.2945,-2.2956,-2.2973,-2.3069,-2.3132,-2.3144,-2.318,-2.3177,-2.3197,-2.3233,-2.3247,-2.3361,-2.3346,-2.3361,-2.3381,-2.3494,-2.3496,-2.3498,-2.3482,-2.3484,-2.3485,0,0,0,0,0,0,-2.2878,-2.2954,-2.2967,-2.3028,-2.3073,-2.3138,-2.3164,-2.3181,-2.3227,-2.3226,-2.3267,-2.328,-2.3333,-2.3363,-2.3344,-2.3431,-2.3428,-2.3433,-2.341,-2.3412,-2.3414,-2.3405,-2.3358,0,0,0,0,0,-2.2879,-2.2925,-2.2988,-2.3035,-2.3058,-2.3107,-2.3136,-2.3159,-2.3207,-2.3226,-2.3267,-2.3311,-2.3357,-2.3387,-2.3432,-2.3487,-2.35,-2.3508,-2.351,-2.3511,-2.3514,-2.3545,-2.3549,-2.3507,-2.3507,-2.3507,0,0,-2.288,-2.2928,-2.2954,-2.3031,-2.3069,-2.3114,-2.3123,-2.317,-2.3204,-2.3233,-2.3289,-2.332,-2.3372,-2.3428,-2.3455,-2.3454,-2.3529,-2.3514,-2.3514,-2.3517,-2.3548,-2.3552,-2.3555,-2.3508,-2.3508,-2.3508,0,0,-2.2906,-2.2947,-2.2991,-2.303,-2.3088,-2.3121,-2.3131,-2.3194,-2.3216,-2.3273,-2.3296,-2.3335,-2.3414,-2.345,-2.3479,-2.352,-2.3533,-2.3533,-2.354,-2.3569,-2.3573,-2.3576,-2.3589,-2.3594,-2.3537,-2.3537,-2.3537,0,-2.29,-2.2971,-2.3011,-2.3058,-2.309,-2.3121,-2.3164,-2.3199,-2.3268,-2.3289,-2.3289,-2.3388,-2.3426,-2.349,-2.35,-2.3523,-2.3534,-2.3525,-2.3569,-2.3573,-2.3576,-2.3589,-2.3594,-2.3536,-2.3536,-2.3536,-2.3537,0,-2.296,-2.3009,-2.3037,-2.3105,-2.3141,-2.3186,-2.3231,-2.3262,-2.3283,-2.3315,-2.3372,-2.3418,-2.3474,-2.3491,-2.3511,-2.3558,-2.3556,-2.3562,-2.3559,-2.3579,-2.3592,-2.3598,-2.3536,-2.3536,-2.3536,-2.3536,0,0,-2.297,-2.3061,-2.307,-2.3101,-2.3168,-2.3206,-2.3251,-2.3308,-2.3333,-2.338,-2.3418,-2.3484,-2.3491,-2.3523,-2.3547,-2.3573,-2.3601,-2.3576,-2.3578,-2.3578,-2.3655,-2.3649,-2.3654,-2.3611,-2.3612,-2.3613,-2.365,0,-2.3003,-2.3088,-2.3126,-2.3193,-2.3237,-2.3268,-2.3307,-2.3351,-2.3383,-2.3424,-2.3458,-2.3504,-2.3509,-2.3529,-2.3556,-2.3592,-2.3617,-2.359,-2.3645,-2.3647,-2.363,-2.3661,-2.3656,-2.3688,-2.3655,-2.3656,-2.3657,0,-2.3054,-2.3103,-2.3175,-2.3237,-2.3257,-2.3292,-2.3346,-2.3386,-2.3436,-2.3457,-2.3494,-2.3518,-2.3565,-2.356,-2.3625,-2.3606,-2.3631,-2.3652,-2.3654,-2.3659,-2.3652,-2.3666,-2.3699,-2.3704,-2.3666,-2.3665,-2.3664,0,-2.3052,-2.3136,-2.319,-2.3216,-2.329,-2.3314,-2.3345,-2.3395,-2.3426,-2.3473,-2.3494,-2.3545,-2.3572,-2.3611,-2.3646,-2.364,-2.3708,-2.3706,-2.3725,-2.3724,-2.3736,-2.3735,-2.3773,-2.3755,-2.3754,-2.3754,-2.3754,0,-2.3085,-2.3127,-2.319,-2.3223,-2.3272,-2.3314,-2.336,-2.3393,-2.3437,-2.3476,-2.3505,-2.354,-2.3586,-2.3627,-2.3655,-2.3704,-2.3717,-2.3733,-2.374,-2.373,-2.3728,-2.3746,-2.3744,-2.3756,-2.3755,-2.3755,-2.3755,0,-2.309,-2.3135,-2.3195,-2.3261,-2.3278,-2.3311,-2.3366,-2.3398,-2.3432,-2.348,-2.3494,-2.3545,-2.3595,-2.3635,-2.3699,-2.3718,-2.3769,-2.3777,-2.3752,-2.3756,-2.3772,-2.377,-2.3822,-2.383,-2.3807,-2.3807,-2.3808,0,-2.3108,-2.3142,-2.3212,-2.3241,-2.3272,-2.3318,-2.3351,-2.3394,-2.3426,-2.3487,-2.3511,-2.3563,-2.3607,-2.3684,-2.3726,-2.3775,-2.3784,-2.3799,-2.3792,-2.3781,-2.3783,-2.378,-2.3783,-2.3799,-2.3799,-2.3799,-2.3799,0,-2.3134,-2.3155,-2.3202,-2.3256,-2.3295,-2.3339,-2.3384,-2.3406,-2.3456,-2.3491,-2.3543,-2.3577,-2.3644,-2.3694,-2.3748,-2.3779,-2.3797,-2.3802,-2.3809,-2.3798,-2.3782,-2.379,-2.3753,-2.38,-2.38,-2.38,-2.38,-2.38,-2.3146,-2.3177,-2.3231,-2.3282,-2.3321,-2.3363,-2.3397,-2.3435,-2.348,-2.3538,-2.356,-2.3613,-2.3662,-2.3737,-2.3768,-2.3809,-2.381,-2.382,-2.3823,-2.3824,-2.3823,-2.3777,-2.3819,-2.3819,-2.3819,-2.3819,-2.3819,0,-2.3172,-2.3209,-2.3256,-2.3319,-2.3359,-2.3375,-2.3426,-2.3458,-2.3505,-2.355,-2.3593,-2.3652,-2.3702,-2.3748,-2.38,-2.3823,-2.3833,-2.3835,-2.3833,-2.384,-2.3819,-2.3807,-2.3827,-2.3827,-2.3827,-2.3827,-2.3827,-2.3827,-2.3191,-2.3245,-2.3272,-2.3344,-2.338,-2.3434,-2.3462,-2.35,-2.3536,-2.3602,-2.3644,-2.3675,-2.372,-2.3775,-2.3821,-2.3833,-2.385,-2.385,-2.3864,-2.3843,-2.3841,-2.384,-2.3829,-2.3853,-2.3853,-2.3882,-2.3882,-2.3882]}]]